Powrót do katalogu

SL-16 DEB

AktywnyLEO
NORAD 22606·DEBRIS·🇷🇺 Russia

Wystrzelony Mar 26, 1993 z Baikonur Cosmodrome

Loading…

Następne Przeloty (najbliższe 24 godziny)

TLE

ŚwieżeSource: Space-Track

Epoka: Sep 14, 2026, 15:41 UTC

1 22606U 93016Q   26257.65357882  .00000202  00000-0  18607-3 0  9990
2 22606  71.0027 336.1627 0145146  35.7182 115.1137 13.89263057691717

Śledź SL-16 DEB w czasie rzeczywistym z AllMySat

Download on the App Store